owner,sensor,date,latitude,longitude,vertical_datum,sea_water_speed,direction_of_sea_water_velocity,upward_sea_water_velocity,qcFlag
BP,ioos:station:wmo:42369:4,2021-08-01T00:00:00Z,27.2166,-90.2841,1343.0,12.7,312.8,-9999.0,'111111111,111111111,999999991'
BP,ioos:station:wmo:42369:4,2021-08-01T00:20:00Z,27.2167,-90.2841,1343.0,14.2,328.6,-9999.0,'111111111,111111111,999999991'
BP,ioos:station:wmo:42369:4,2021-08-01T00:40:00Z,27.2167,-90.2841,1343.0,12.2,337.4,-9999.0,'111111111,111111111,999999991'
BP,ioos:station:wmo:42369:4,2021-08-01T01:00:00Z,27.2166,-90.2842,1343.0,12.0,352.8,-9999.0,'111111111,111111111,999999991'
BP,ioos:station:wmo:42369:4,2021-08-01T01:20:00Z,27.2166,-90.2842,1343.0,8.3,359.3,-9999.0,'111111111,111441111,999999991'
BP,ioos:station:wmo:42369:4,2021-08-01T01:40:00Z,27.2165,-90.2843,1343.0,8.6,9.4,-9999.0,'111111111,111111111,999999991'
BP,ioos:station:wmo:42369:4,2021-08-01T02:00:00Z,27.2165,-90.2845,1343.0,8.9,5.8,-9999.0,'111111111,111111111,999999991'
BP,ioos:station:wmo:42369:4,2021-08-01T02:20:00Z,27.2164,-90.2846,1343.0,9.0,7.7,-9999.0,'111111111,111111111,999999991'
BP,ioos:station:wmo:42369:4,2021-08-01T02:40:00Z,27.2164,-90.2848,1343.0,8.8,19.3,-9999.0,'111111111,111111111,999999991'
BP,ioos:station:wmo:42369:4,2021-08-01T03:00:00Z,27.2164,-90.2850,1343.0,9.4,16.1,-9999.0,'111111111,111111111,999999991'
BP,ioos:station:wmo:42369:4,2021-08-01T03:20:00Z,27.2164,-90.2851,1343.0,9.8,15.5,-9999.0,'111111111,111111111,999999991'
BP,ioos:station:wmo:42369:4,2021-08-01T03:40:00Z,27.2164,-90.2851,1343.0,10.8,20.6,-9999.0,'111111111,111111111,999999991'
BP,ioos:station:wmo:42369:4,2021-08-01T04:00:00Z,27.2164,-90.2851,1343.0,10.4,25.6,-9999.0,'111111111,111111111,999999991'
BP,ioos:station:wmo:42369:4,2021-08-01T04:20:00Z,27.2164,-90.2851,1343.0,9.3,30.4,-9999.0,'111111111,111111111,999999991'
BP,ioos:station:wmo:42369:4,2021-08-01T04:40:00Z,27.2164,-90.2853,1343.0,7.8,29.2,-9999.0,'111111111,111111111,999999991'
BP,ioos:station:wmo:42369:4,2021-08-01T05:00:00Z,27.2164,-90.2853,1343.0,8.1,29.4,-9999.0,'111111111,111111111,999999991'
BP,ioos:station:wmo:42369:4,2021-08-01T05:20:00Z,27.2164,-90.2853,1343.0,8.4,32.4,-9999.0,'111111111,111111111,999999991'
BP,ioos:station:wmo:42369:4,2021-08-01T05:40:00Z,27.2164,-90.2854,1343.0,7.7,28.6,-9999.0,'111111111,111111111,999999991'
BP,ioos:station:wmo:42369:4,2021-08-01T06:00:00Z,27.2164,-90.2854,1343.0,7.6,36.4,-9999.0,'111111111,111111111,999999991'
BP,ioos:station:wmo:42369:4,2021-08-01T06:20:00Z,27.2164,-90.2854,1343.0,7.9,36.7,-9999.0,'111111111,111111111,999999991'
BP,ioos:station:wmo:42369:4,2021-08-01T06:40:00Z,27.2164,-90.2854,1343.0,6.9,36.7,-9999.0,'111111111,111111111,999999991'
BP,ioos:station:wmo:42369:4,2021-08-01T07:00:00Z,27.2164,-90.2854,1343.0,5.5,39.8,-9999.0,'111111111,111111111,999999991'
BP,ioos:station:wmo:42369:4,2021-08-01T07:20:00Z,27.2164,-90.2855,1343.0,5.0,51.5,-9999.0,'111111111,111111111,999999991'
BP,ioos:station:wmo:42369:4,2021-08-01T07:40:00Z,27.2164,-90.2855,1343.0,4.8,40.7,-9999.0,'111111111,111111111,999999991'
BP,ioos:station:wmo:42369:4,2021-08-01T08:00:00Z,27.2164,-90.2855,1343.0,3.3,46.2,-9999.0,'111111111,111111111,999999991'
BP,ioos:station:wmo:42369:4,2021-08-01T08:20:00Z,27.2164,-90.2855,1343.0,3.4,72.6,-9999.0,'111111111,111111111,999999991'
BP,ioos:station:wmo:42369:4,2021-08-01T08:40:00Z,27.2164,-90.2856,1343.0,3.0,53.1,-9999.0,'111111111,111111111,999999991'
BP,ioos:station:wmo:42369:4,2021-08-01T09:00:00Z,27.2164,-90.2856,1343.0,3.3,54.9,-9999.0,'111111111,111111111,999999991'
BP,ioos:station:wmo:42369:4,2021-08-01T09:20:00Z,27.2164,-90.2856,1343.0,2.7,45.0,-9999.0,'111331111,111111111,999999991'
BP,ioos:station:wmo:42369:4,2021-08-01T09:40:00Z,27.2164,-90.2856,1343.0,3.4,72.6,-9999.0,'111111111,111111111,999999991'
BP,ioos:station:wmo:42369:4,2021-08-01T10:00:00Z,27.2163,-90.2858,1343.0,4.2,53.7,-9999.0,'111111111,111111111,999999991'
BP,ioos:station:wmo:42369:4,2021-08-01T10:20:00Z,27.2163,-90.2858,1343.0,3.2,51.3,-9999.0,'111111111,111111111,999999991'
BP,ioos:station:wmo:42369:4,2021-08-01T10:40:00Z,27.2163,-90.2859,1343.0,3.4,83.3,-9999.0,'111111111,111111111,999999991'
BP,ioos:station:wmo:42369:4,2021-08-01T11:00:00Z,27.2163,-90.2859,1343.0,4.7,60.7,-9999.0,'111111111,111111111,999999991'
BP,ioos:station:wmo:42369:4,2021-08-01T11:20:00Z,27.2163,-90.2860,1343.0,3.9,64.1,-9999.0,'111111111,111111111,999999991'
BP,ioos:station:wmo:42369:4,2021-08-01T11:40:00Z,27.2163,-90.2861,1343.0,2.8,70.9,-9999.0,'111331111,111111111,999999991'
BP,ioos:station:wmo:42369:4,2021-08-01T12:00:00Z,27.2163,-90.2861,1343.0,3.6,65.6,-9999.0,'111111111,111111111,999999991'
BP,ioos:station:wmo:42369:4,2021-08-01T12:20:00Z,27.2163,-90.2862,1343.0,3.4,49.8,-9999.0,'111111111,111111111,999999991'
BP,ioos:station:wmo:42369:4,2021-08-01T12:40:00Z,27.2163,-90.2862,1343.0,3.5,31.0,-9999.0,'111111111,111111111,999999991'
BP,ioos:station:wmo:42369:4,2021-08-01T13:00:00Z,27.2163,-90.2862,1343.0,2.7,26.6,-9999.0,'111331111,111111111,999999991'
BP,ioos:station:wmo:42369:4,2021-08-01T13:20:00Z,27.2163,-90.2864,1343.0,4.1,24.7,-9999.0,'111111111,111111111,999999991'
BP,ioos:station:wmo:42369:4,2021-08-01T13:40:00Z,27.2163,-90.2864,1343.0,3.3,37.6,-9999.0,'111111111,111111111,999999991'
BP,ioos:station:wmo:42369:4,2021-08-01T14:00:00Z,27.2163,-90.2864,1343.0,4.0,58.3,-9999.0,'111111111,111111111,999999991'
BP,ioos:station:wmo:42369:4,2021-08-01T14:20:00Z,27.2163,-90.2864,1343.0,3.0,47.7,-9999.0,'111331111,111111111,999999991'
BP,ioos:station:wmo:42369:4,2021-08-01T14:40:00Z,27.2163,-90.2864,1343.0,2.2,69.1,-9999.0,'111331111,111111111,999999991'
BP,ioos:station:wmo:42369:4,2021-08-01T15:00:00Z,27.2163,-90.2864,1343.0,2.2,39.5,-9999.0,'111331111,111111111,999999991'
BP,ioos:station:wmo:42369:4,2021-08-01T15:20:00Z,27.2163,-90.2865,1343.0,2.6,79.1,-9999.0,'111331111,111111111,999999991'
BP,ioos:station:wmo:42369:4,2021-08-01T15:40:00Z,27.2163,-90.2865,1343.0,2.1,90.0,-9999.0,'111331111,111111111,999999991'
BP,ioos:station:wmo:42369:4,2021-08-01T16:00:00Z,27.2163,-90.2866,1343.0,1.2,90.0,-9999.0,'111331111,111111111,999999991'
BP,ioos:station:wmo:42369:4,2021-08-01T16:20:00Z,27.2163,-90.2866,1343.0,1.4,0.0,-9999.0,'111331111,111441111,999999991'
BP,ioos:station:wmo:42369:4,2021-08-01T16:40:00Z,27.2163,-90.2866,1343.0,1.2,325.0,-9999.0,'111331111,111111111,999999991'
BP,ioos:station:wmo:42369:4,2021-08-01T17:00:00Z,27.2163,-90.2865,1343.0,1.0,0.0,-9999.0,'111331111,111441111,999999991'
BP,ioos:station:wmo:42369:4,2021-08-01T17:20:00Z,27.2164,-90.2865,1343.0,0.6,0.0,-9999.0,'111331111,111441111,999999991'
BP,ioos:station:wmo:42369:4,2021-08-01T17:40:00Z,27.2161,-90.2871,1343.0,2.5,338.6,-9999.0,'111331111,111111111,999999991'
BP,ioos:station:wmo:42369:4,2021-08-01T18:00:00Z,27.2158,-90.2875,1343.0,2.3,9.9,-9999.0,'111331111,111111111,999999991'
BP,ioos:station:wmo:42369:4,2021-08-01T18:20:00Z,27.2158,-90.2875,1343.0,3.8,25.2,-9999.0,'111111111,111111111,999999991'
BP,ioos:station:wmo:42369:4,2021-08-01T18:40:00Z,27.2157,-90.2879,1343.0,4.9,28.1,-9999.0,'111111111,111111111,999999991'
BP,ioos:station:wmo:42369:4,2021-08-01T19:00:00Z,27.2156,-90.2879,1343.0,5.5,31.7,-9999.0,'111111111,111111111,999999991'
BP,ioos:station:wmo:42369:4,2021-08-01T19:20:00Z,27.2156,-90.2879,1343.0,5.7,23.9,-9999.0,'111111111,111111111,999999991'
BP,ioos:station:wmo:42369:4,2021-08-01T19:40:00Z,27.2156,-90.2881,1343.0,4.4,15.9,-9999.0,'111111111,111111111,999999991'
BP,ioos:station:wmo:42369:4,2021-08-01T20:00:00Z,27.2155,-90.2882,1343.0,5.2,18.1,-9999.0,'111111111,111111111,999999991'
BP,ioos:station:wmo:42369:4,2021-08-01T20:20:00Z,27.2155,-90.2883,1343.0,5.5,16.8,-9999.0,'111111111,111111111,999999991'
BP,ioos:station:wmo:42369:4,2021-08-01T20:40:00Z,27.2155,-90.2883,1343.0,5.9,21.8,-9999.0,'111111111,111111111,999999991'
BP,ioos:station:wmo:42369:4,2021-08-01T21:00:00Z,27.2154,-90.2884,1343.0,6.4,25.8,-9999.0,'111111111,111111111,999999991'
BP,ioos:station:wmo:42369:4,2021-08-01T21:20:00Z,27.2154,-90.2884,1343.0,5.7,15.3,-9999.0,'111111111,111111111,999999991'
BP,ioos:station:wmo:42369:4,2021-08-01T21:40:00Z,27.2154,-90.2884,1343.0,5.3,15.4,-9999.0,'111111111,111111111,999999991'
BP,ioos:station:wmo:42369:4,2021-08-01T22:00:00Z,27.2153,-90.2886,1343.0,5.6,31.1,-9999.0,'111111111,111111111,999999991'
BP,ioos:station:wmo:42369:4,2021-08-01T22:20:00Z,27.2153,-90.2886,1343.0,5.5,12.5,-9999.0,'111111111,111111111,999999991'
BP,ioos:station:wmo:42369:4,2021-08-01T22:40:00Z,27.2153,-90.2886,1343.0,5.0,10.4,-9999.0,'111111111,111111111,999999991'
BP,ioos:station:wmo:42369:4,2021-08-01T23:00:00Z,27.2153,-90.2886,1343.0,5.6,9.3,-9999.0,'111111111,111111111,999999991'
BP,ioos:station:wmo:42369:4,2021-08-01T23:20:00Z,27.2153,-90.2887,1343.0,7.0,358.4,-9999.0,'111111111,111111111,999999991'
BP,ioos:station:wmo:42369:4,2021-08-01T23:40:00Z,27.2153,-90.2887,1343.0,6.6,3.5,-9999.0,'111111111,111111111,999999991'
BP,ioos:station:wmo:42369:4,2021-08-02T00:00:00Z,27.2152,-90.2887,1343.0,6.3,4.5,-9999.0,'111111111,111111111,999999991'
BP,ioos:station:wmo:42369:4,2021-08-02T00:20:00Z,27.2152,-90.2887,1343.0,6.5,12.5,-9999.0,'111111111,111111111,999999991'
BP,ioos:station:wmo:42369:4,2021-08-02T00:40:00Z,27.2152,-90.2887,1343.0,5.5,20.1,-9999.0,'111111111,111111111,999999991'
BP,ioos:station:wmo:42369:4,2021-08-02T01:00:00Z,27.2152,-90.2887,1343.0,6.2,23.7,-9999.0,'111111111,111111111,999999991'
BP,ioos:station:wmo:42369:4,2021-08-02T01:20:00Z,27.2152,-90.2888,1343.0,5.2,20.2,-9999.0,'111111111,111111111,999999991'
BP,ioos:station:wmo:42369:4,2021-08-02T01:40:00Z,27.2152,-90.2888,1343.0,7.3,26.9,-9999.0,'111111111,111111111,999999991'
BP,ioos:station:wmo:42369:4,2021-08-02T02:00:00Z,27.2152,-90.2888,1343.0,7.5,19.4,-9999.0,'111111111,111111111,999999991'
BP,ioos:station:wmo:42369:4,2021-08-02T02:20:00Z,27.2153,-90.2889,1343.0,7.4,23.1,-9999.0,'111111111,111111111,999999991'
BP,ioos:station:wmo:42369:4,2021-08-02T02:40:00Z,27.2153,-90.2889,1343.0,7.9,28.8,-9999.0,'111111111,111111111,999999991'
BP,ioos:station:wmo:42369:4,2021-08-02T03:00:00Z,27.2153,-90.2889,1343.0,7.4,35.6,-9999.0,'111111111,111111111,999999991'
BP,ioos:station:wmo:42369:4,2021-08-02T03:20:00Z,27.2153,-90.2889,1343.0,6.9,43.8,-9999.0,'111111111,111111111,999999991'
BP,ioos:station:wmo:42369:4,2021-08-02T03:40:00Z,27.2153,-90.2890,1343.0,6.3,49.5,-9999.0,'111111111,111111111,999999991'
BP,ioos:station:wmo:42369:4,2021-08-02T04:00:00Z,27.2153,-90.2889,1343.0,6.1,53.7,-9999.0,'111111111,111111111,999999991'
BP,ioos:station:wmo:42369:4,2021-08-02T04:20:00Z,27.2153,-90.2890,1343.0,4.7,56.3,-9999.0,'111111111,111111111,999999991'
BP,ioos:station:wmo:42369:4,2021-08-02T04:40:00Z,27.2152,-90.2890,1343.0,4.3,59.3,-9999.0,'111111111,111111111,999999991'
BP,ioos:station:wmo:42369:4,2021-08-02T05:00:00Z,27.2152,-90.2891,1343.0,4.3,67.0,-9999.0,'111111111,111111111,999999991'
BP,ioos:station:wmo:42369:4,2021-08-02T05:20:00Z,27.2152,-90.2891,1343.0,4.6,29.9,-9999.0,'111111111,111111111,999999991'
BP,ioos:station:wmo:42369:4,2021-08-02T05:40:00Z,27.2152,-90.2891,1343.0,3.5,50.8,-9999.0,'111111111,111111111,999999991'
BP,ioos:station:wmo:42369:4,2021-08-02T06:00:00Z,27.2152,-90.2891,1343.0,3.7,36.3,-9999.0,'111111111,111111111,999999991'
BP,ioos:station:wmo:42369:4,2021-08-02T06:20:00Z,27.2152,-90.2891,1343.0,4.6,31.6,-9999.0,'111111111,111111111,999999991'
BP,ioos:station:wmo:42369:4,2021-08-02T06:40:00Z,27.2152,-90.2891,1343.0,5.3,31.9,-9999.0,'111111111,111111111,999999991'
BP,ioos:station:wmo:42369:4,2021-08-02T07:00:00Z,27.2152,-90.2891,1343.0,5.1,33.1,-9999.0,'111111111,111111111,999999991'
BP,ioos:station:wmo:42369:4,2021-08-02T07:20:00Z,27.2152,-90.2891,1343.0,5.0,41.0,-9999.0,'111111111,111111111,999999991'
BP,ioos:station:wmo:42369:4,2021-08-02T07:40:00Z,27.2152,-90.2891,1343.0,6.0,36.9,-9999.0,'111111111,111111111,999999991'
BP,ioos:station:wmo:42369:4,2021-08-02T08:00:00Z,27.2152,-90.2891,1343.0,6.7,36.5,-9999.0,'111111111,111111111,999999991'
BP,ioos:station:wmo:42369:4,2021-08-02T08:20:00Z,27.2152,-90.2892,1343.0,5.7,29.2,-9999.0,'111111111,111111111,999999991'
BP,ioos:station:wmo:42369:4,2021-08-02T08:40:00Z,27.2152,-90.2892,1343.0,6.7,37.7,-9999.0,'111111111,111111111,999999991'
BP,ioos:station:wmo:42369:4,2021-08-02T09:00:00Z,27.2152,-90.2892,1343.0,7.7,40.8,-9999.0,'111111111,111111111,999999991'
BP,ioos:station:wmo:42369:4,2021-08-02T09:20:00Z,27.2152,-90.2892,1343.0,7.5,33.1,-9999.0,'111111111,111111111,999999991'
BP,ioos:station:wmo:42369:4,2021-08-02T09:40:00Z,27.2152,-90.2892,1343.0,8.4,42.6,-9999.0,'111111111,111111111,999999991'
BP,ioos:station:wmo:42369:4,2021-08-02T10:00:00Z,27.2152,-90.2892,1343.0,8.2,42.0,-9999.0,'111111111,111111111,999999991'
BP,ioos:station:wmo:42369:4,2021-08-02T10:20:00Z,27.2153,-90.2890,1343.0,6.7,43.2,-9999.0,'111111111,111111111,999999991'
BP,ioos:station:wmo:42369:4,2021-08-02T10:40:00Z,27.2153,-90.2889,1343.0,6.8,27.3,-9999.0,'111111111,111111111,999999991'
BP,ioos:station:wmo:42369:4,2021-08-02T11:00:00Z,27.2154,-90.2888,1343.0,7.3,37.2,-9999.0,'111111111,111111111,999999991'
BP,ioos:station:wmo:42369:4,2021-08-02T11:20:00Z,27.2155,-90.2886,1343.0,7.2,35.4,-9999.0,'111111111,111111111,999999991'
BP,ioos:station:wmo:42369:4,2021-08-02T11:40:00Z,27.2155,-90.2886,1343.0,8.3,32.7,-9999.0,'111111111,111111111,999999991'
BP,ioos:station:wmo:42369:4,2021-08-02T12:00:00Z,27.2155,-90.2886,1343.0,7.8,29.8,-9999.0,'111111111,111111111,999999991'
BP,ioos:station:wmo:42369:4,2021-08-02T12:20:00Z,27.2157,-90.2884,1343.0,8.9,32.6,-9999.0,'111111111,111111111,999999991'
BP,ioos:station:wmo:42369:4,2021-08-02T12:40:00Z,27.2158,-90.2883,1343.0,9.6,32.7,-9999.0,'111111111,111111111,999999991'
BP,ioos:station:wmo:42369:4,2021-08-02T13:00:00Z,27.2158,-90.2882,1343.0,8.5,36.9,-9999.0,'111111111,111111111,999999991'
BP,ioos:station:wmo:42369:4,2021-08-02T13:20:00Z,27.2158,-90.2882,1343.0,8.6,42.6,-9999.0,'111111111,111111111,999999991'
BP,ioos:station:wmo:42369:4,2021-08-02T13:40:00Z,27.2157,-90.2883,1343.0,11.0,36.9,-9999.0,'111111111,111111111,999999991'
BP,ioos:station:wmo:42369:4,2021-08-02T14:00:00Z,27.2158,-90.2882,1343.0,11.5,35.8,-9999.0,'111111111,111111111,999999991'
BP,ioos:station:wmo:42369:4,2021-08-02T14:20:00Z,27.2158,-90.2881,1343.0,9.7,42.1,-9999.0,'111111111,111111111,999999991'
BP,ioos:station:wmo:42369:4,2021-08-02T14:40:00Z,27.2158,-90.2881,1343.0,9.5,48.4,-9999.0,'111111111,111111111,999999991'
BP,ioos:station:wmo:42369:4,2021-08-02T15:00:00Z,27.2158,-90.2881,1343.0,8.7,51.0,-9999.0,'111111111,111111111,999999991'
BP,ioos:station:wmo:42369:4,2021-08-02T15:20:00Z,27.2153,-90.2883,1343.0,7.5,48.2,-9999.0,'111111111,111111111,999999991'
BP,ioos:station:wmo:42369:4,2021-08-02T15:40:00Z,27.2153,-90.2885,1343.0,9.1,48.1,-9999.0,'111111111,111111111,999999991'
BP,ioos:station:wmo:42369:4,2021-08-02T16:00:00Z,27.2153,-90.2885,1343.0,8.3,52.9,-9999.0,'111111111,111111111,999999991'
BP,ioos:station:wmo:42369:4,2021-08-02T16:20:00Z,27.2152,-90.2885,1343.0,9.1,48.1,-9999.0,'111111111,111111111,999999991'
BP,ioos:station:wmo:42369:4,2021-08-02T16:40:00Z,27.2152,-90.2885,1343.0,10.0,47.8,-9999.0,'111111111,111111111,999999991'
BP,ioos:station:wmo:42369:4,2021-08-02T17:00:00Z,27.2153,-90.2884,1343.0,10.4,48.5,-9999.0,'111111111,111111111,999999991'
BP,ioos:station:wmo:42369:4,2021-08-02T17:20:00Z,27.2153,-90.2884,1343.0,9.6,51.3,-9999.0,'111111111,111111111,999999991'
BP,ioos:station:wmo:42369:4,2021-08-02T17:40:00Z,27.2154,-90.2881,1343.0,10.2,51.0,-9999.0,'111111111,111111111,999999991'
BP,ioos:station:wmo:42369:4,2021-08-02T18:00:00Z,27.2154,-90.2881,1343.0,11.3,52.9,-9999.0,'111111111,111111111,999999991'
BP,ioos:station:wmo:42369:4,2021-08-02T18:20:00Z,27.2154,-90.2881,1343.0,11.7,58.6,-9999.0,'111111111,111111111,999999991'
BP,ioos:station:wmo:42369:4,2021-08-02T18:40:00Z,27.2153,-90.2881,1343.0,10.8,52.9,-9999.0,'111111111,111111111,999999991'
BP,ioos:station:wmo:42369:4,2021-08-02T19:40:00Z,27.2152,-90.2881,1343.0,9.8,47.5,-9999.0,'111111111,111111111,999999991'
BP,ioos:station:wmo:42369:4,2021-08-02T20:00:00Z,27.2152,-90.2881,1343.0,11.6,51.0,-9999.0,'111111111,111111111,999999991'
BP,ioos:station:wmo:42369:4,2021-08-02T20:20:00Z,27.2152,-90.2881,1343.0,11.0,58.3,-9999.0,'111111111,111111111,999999991'
BP,ioos:station:wmo:42369:4,2021-08-02T20:40:00Z,27.2150,-90.2882,1343.0,11.7,57.9,-9999.0,'111111111,111111111,999999991'
BP,ioos:station:wmo:42369:4,2021-08-02T21:00:00Z,27.2150,-90.2882,1343.0,12.2,53.7,-9999.0,'111111111,111111111,999999991'
BP,ioos:station:wmo:42369:4,2021-08-02T21:20:00Z,27.2150,-90.2882,1343.0,11.3,48.2,-9999.0,'111111111,111111111,999999991'
BP,ioos:station:wmo:42369:4,2021-08-02T21:40:00Z,27.2150,-90.2882,1343.0,12.9,46.3,-9999.0,'111111111,111111111,999999991'
BP,ioos:station:wmo:42369:4,2021-08-02T22:00:00Z,27.2150,-90.2882,1343.0,11.2,38.5,-9999.0,'111111111,111111111,999999991'
BP,ioos:station:wmo:42369:4,2021-08-02T22:20:00Z,27.2150,-90.2882,1343.0,11.1,38.4,-9999.0,'111111111,111111111,999999991'
BP,ioos:station:wmo:42369:4,2021-08-02T22:40:00Z,27.2149,-90.2883,1343.0,9.9,40.9,-9999.0,'111111111,111111111,999999991'
BP,ioos:station:wmo:42369:4,2021-08-02T23:00:00Z,27.2149,-90.2883,1343.0,11.0,40.9,-9999.0,'111111111,111111111,999999991'
BP,ioos:station:wmo:42369:4,2021-08-02T23:20:00Z,27.2148,-90.2884,1343.0,11.3,38.2,-9999.0,'111111111,111111111,999999991'
BP,ioos:station:wmo:42369:4,2021-08-02T23:40:00Z,27.2148,-90.2884,1343.0,11.3,42.9,-9999.0,'111111111,111111111,999999991'
BP,ioos:station:wmo:42369:4,2021-08-03T00:00:00Z,27.2148,-90.2884,1343.0,11.7,53.3,-9999.0,'111111111,111111111,999999991'
BP,ioos:station:wmo:42369:4,2021-08-03T00:20:00Z,27.2148,-90.2884,1343.0,11.9,57.0,-9999.0,'111111111,111111111,999999991'
BP,ioos:station:wmo:42369:4,2021-08-03T00:40:00Z,27.2148,-90.2884,1343.0,10.3,57.7,-9999.0,'111111111,111111111,999999991'
BP,ioos:station:wmo:42369:4,2021-08-03T01:00:00Z,27.2148,-90.2884,1343.0,12.5,57.5,-9999.0,'111111111,111111111,999999991'
BP,ioos:station:wmo:42369:4,2021-08-03T01:20:00Z,27.2148,-90.2884,1343.0,12.6,63.6,-9999.0,'111111111,111111111,999999991'
BP,ioos:station:wmo:42369:4,2021-08-03T01:40:00Z,27.2148,-90.2884,1343.0,11.8,61.0,-9999.0,'111111111,111111111,999999991'
BP,ioos:station:wmo:42369:4,2021-08-03T02:00:00Z,27.2148,-90.2884,1343.0,10.8,50.3,-9999.0,'111111111,111111111,999999991'
BP,ioos:station:wmo:42369:4,2021-08-03T02:20:00Z,27.2148,-90.2884,1343.0,11.2,59.3,-9999.0,'111111111,111111111,999999991'
BP,ioos:station:wmo:42369:4,2021-08-03T02:40:00Z,27.2148,-90.2884,1343.0,10.7,49.9,-9999.0,'111111111,111111111,999999991'
BP,ioos:station:wmo:42369:4,2021-08-03T03:00:00Z,27.2147,-90.2886,1343.0,11.4,57.1,-9999.0,'111111111,111111111,999999991'
BP,ioos:station:wmo:42369:4,2021-08-03T03:20:00Z,27.2147,-90.2886,1343.0,11.3,49.0,-9999.0,'111111111,111111111,999999991'
BP,ioos:station:wmo:42369:4,2021-08-03T03:40:00Z,27.2146,-90.2886,1343.0,11.6,62.3,-9999.0,'111111111,111111111,999999991'
BP,ioos:station:wmo:42369:4,2021-08-03T04:00:00Z,27.2146,-90.2887,1343.0,12.3,61.8,-9999.0,'111111111,111111111,999999991'
BP,ioos:station:wmo:42369:4,2021-08-03T04:20:00Z,27.2146,-90.2887,1343.0,12.6,63.6,-9999.0,'111111111,111111111,999999991'
BP,ioos:station:wmo:42369:4,2021-08-03T04:40:00Z,27.2144,-90.2887,1343.0,10.7,63.9,-9999.0,'111111111,111111111,999999991'
BP,ioos:station:wmo:42369:4,2021-08-03T05:00:00Z,27.2144,-90.2886,1343.0,10.9,73.6,-9999.0,'111111111,111111111,999999991'
BP,ioos:station:wmo:42369:4,2021-08-03T05:20:00Z,27.2144,-90.2884,1343.0,9.5,68.3,-9999.0,'111111111,111111111,999999991'
BP,ioos:station:wmo:42369:4,2021-08-03T05:40:00Z,27.2144,-90.2884,1343.0,9.6,74.2,-9999.0,'111111111,111111111,999999991'
BP,ioos:station:wmo:42369:4,2021-08-03T06:00:00Z,27.2144,-90.2884,1343.0,7.9,81.3,-9999.0,'111111111,111111111,999999991'
BP,ioos:station:wmo:42369:4,2021-08-03T06:20:00Z,27.2144,-90.2884,1343.0,8.3,72.4,-9999.0,'111111111,111111111,999999991'
BP,ioos:station:wmo:42369:4,2021-08-03T06:40:00Z,27.2143,-90.2886,1343.0,7.7,72.7,-9999.0,'111111111,111111111,999999991'
BP,ioos:station:wmo:42369:4,2021-08-03T07:00:00Z,27.2143,-90.2886,1343.0,7.4,67.6,-9999.0,'111111111,111111111,999999991'
BP,ioos:station:wmo:42369:4,2021-08-03T07:20:00Z,27.2143,-90.2886,1343.0,9.6,69.9,-9999.0,'111111111,111111111,999999991'
BP,ioos:station:wmo:42369:4,2021-08-03T07:40:00Z,27.2141,-90.2887,1343.0,10.0,68.8,-9999.0,'111111111,111111111,999999991'
BP,ioos:station:wmo:42369:4,2021-08-03T08:00:00Z,27.2140,-90.2888,1343.0,9.0,67.7,-9999.0,'111111111,111111111,999999991'
BP,ioos:station:wmo:42369:4,2021-08-03T08:20:00Z,27.2139,-90.2889,1343.0,9.3,71.2,-9999.0,'111111111,111111111,999999991'
BP,ioos:station:wmo:42369:4,2021-08-03T08:40:00Z,27.2139,-90.2889,1343.0,10.5,70.5,-9999.0,'111111111,111111111,999999991'
BP,ioos:station:wmo:42369:4,2021-08-03T09:00:00Z,27.2139,-90.2889,1343.0,10.3,75.4,-9999.0,'111111111,111111111,999999991'
BP,ioos:station:wmo:42369:4,2021-08-03T09:20:00Z,27.2140,-90.2886,1343.0,8.7,82.1,-9999.0,'111111111,111111111,999999991'
BP,ioos:station:wmo:42369:4,2021-08-03T09:40:00Z,27.2140,-90.2886,1343.0,9.0,75.2,-9999.0,'111111111,111111111,999999991'
BP,ioos:station:wmo:42369:4,2021-08-03T10:00:00Z,27.2140,-90.2886,1343.0,9.5,74.8,-9999.0,'111111111,111111111,999999991'
BP,ioos:station:wmo:42369:4,2021-08-03T10:20:00Z,27.2139,-90.2889,1343.0,8.5,68.6,-9999.0,'111111111,111111111,999999991'
BP,ioos:station:wmo:42369:4,2021-08-03T10:40:00Z,27.2139,-90.2889,1343.0,9.5,58.8,-9999.0,'111111111,111111111,999999991'
BP,ioos:station:wmo:42369:4,2021-08-03T11:00:00Z,27.2138,-90.2886,1343.0,8.0,56.7,-9999.0,'111111111,111111111,999999991'
BP,ioos:station:wmo:42369:4,2021-08-03T11:20:00Z,27.2138,-90.2887,1343.0,6.8,61.9,-9999.0,'111111111,111111111,999999991'
BP,ioos:station:wmo:42369:4,2021-08-03T11:40:00Z,27.2138,-90.2886,1343.0,5.9,63.0,-9999.0,'111111111,111111111,999999991'
BP,ioos:station:wmo:42369:4,2021-08-03T12:00:00Z,27.2138,-90.2886,1343.0,6.4,57.8,-9999.0,'111111111,111111111,999999991'
BP,ioos:station:wmo:42369:4,2021-08-03T12:20:00Z,27.2138,-90.2886,1343.0,6.0,54.5,-9999.0,'111111111,111111111,999999991'
BP,ioos:station:wmo:42369:4,2021-08-03T12:40:00Z,27.2136,-90.2883,1343.0,5.9,60.4,-9999.0,'111111111,111111111,999999991'
BP,ioos:station:wmo:42369:4,2021-08-03T13:00:00Z,27.2136,-90.2883,1343.0,6.4,63.0,-9999.0,'111111111,111111111,999999991'
BP,ioos:station:wmo:42369:4,2021-08-03T13:20:00Z,27.2136,-90.2883,1343.0,6.5,68.2,-9999.0,'111111111,111111111,999999991'
BP,ioos:station:wmo:42369:4,2021-08-03T13:40:00Z,27.2135,-90.2882,1343.0,7.0,55.4,-9999.0,'111111111,111111111,999999991'
BP,ioos:station:wmo:42369:4,2021-08-03T14:00:00Z,27.2135,-90.2882,1343.0,6.3,71.6,-9999.0,'111111111,111111111,999999991'
BP,ioos:station:wmo:42369:4,2021-08-03T14:20:00Z,27.2135,-90.2882,1343.0,6.3,63.4,-9999.0,'111111111,111111111,999999991'
BP,ioos:station:wmo:42369:4,2021-08-03T14:40:00Z,27.2134,-90.2879,1343.0,5.7,61.6,-9999.0,'111111111,111111111,999999991'
BP,ioos:station:wmo:42369:4,2021-08-03T15:00:00Z,27.2134,-90.2879,1343.0,5.5,51.7,-9999.0,'111111111,111111111,999999991'
BP,ioos:station:wmo:42369:4,2021-08-03T15:20:00Z,27.2134,-90.2879,1343.0,6.5,51.9,-9999.0,'111111111,111111111,999999991'
BP,ioos:station:wmo:42369:4,2021-08-03T15:40:00Z,27.2134,-90.2877,1343.0,7.4,55.5,-9999.0,'111111111,111111111,999999991'
BP,ioos:station:wmo:42369:4,2021-08-03T16:00:00Z,27.2134,-90.2877,1343.0,7.5,49.9,-9999.0,'111111111,111111111,999999991'
BP,ioos:station:wmo:42369:4,2021-08-03T16:20:00Z,27.2134,-90.2877,1343.0,8.4,45.5,-9999.0,'111111111,111111111,999999991'
BP,ioos:station:wmo:42369:4,2021-08-03T16:40:00Z,27.2135,-90.2873,1343.0,8.3,55.7,-9999.0,'111111111,111111111,999999991'